Time,TemperatureF,DewpointF,PressureIn,WindDirection,WindDirectionDegrees,WindSpeedMPH,WindSpeedGustMPH,Humidity,HourlyPrecipIn,Conditions,Clouds,dailyrainin,SolarRadiationWatts/m^2,SoftwareType,DateUTC
2013-02-21 00:00:00,23.9,6.1,30.12,WNW,299,2.0,6.0,46,0.00,CLR,CLR,0.00,0.0,WeatherDisplay:10.37,2013-02-21 05:00:00,
2013-02-21 00:05:00,24.1,6.3,30.12,West,269,2.0,7.0,46,0.00,CLR,CLR,0.00,0.0,WeatherDisplay:10.37,2013-02-21 05:05:00,
2013-02-21 00:10:00,24.1,6.7,30.12,West,272,3.0,6.0,47,0.00,CLR,CLR,0.00,0.0,WeatherDisplay:10.37,2013-02-21 05:10:00,
2013-02-21 00:20:00,24.1,6.3,30.12,WNW,288,3.0,8.0,46,0.00,CLR,CLR,0.00,0.0,WeatherDisplay:10.37,2013-02-21 05:20:00,
2013-02-21 00:25:00,24.1,6.3,30.12,West,275,3.0,10.0,46,0.00,CLR,CLR,0.00,0.0,WeatherDisplay:10.37,2013-02-21 05:25:00,
2013-02-21 00:30:00,24.0,6.2,30.12,West,269,3.0,10.0,46,0.00,CLR,CLR,0.00,0.0,WeatherDisplay:10.37,2013-02-21 05:30:00,
2013-02-21 00:35:00,23.9,6.1,30.12,West,270,3.0,10.0,46,0.00,CLR,CLR,0.00,0.0,WeatherDisplay:10.37,2013-02-21 05:35:00,
2013-02-21 00:40:00,23.9,6.1,30.12,West,281,2.0,8.0,46,0.00,CLR,CLR,0.00,0.0,WeatherDisplay:10.37,2013-02-21 05:40:00,
2013-02-21 00:50:00,23.7,5.9,30.12,NNW,333,3.0,8.0,46,0.00,CLR,CLR,0.00,0.0,WeatherDisplay:10.37,2013-02-21 05:50:00,
2013-02-21 01:00:00,23.7,5.9,30.12,NNW,337,2.0,7.0,46,0.00,CLR,CLR,0.00,0.0,WeatherDisplay:10.37,2013-02-21 06:00:00,
2013-02-21 01:05:00,23.7,5.9,30.12,NNW,346,2.0,5.0,46,0.00,CLR,CLR,0.00,0.0,WeatherDisplay:10.37,2013-02-21 06:05:00,
2013-02-21 01:10:00,23.5,5.8,30.12,NNW,346,2.0,5.0,46,0.00,CLR,CLR,0.00,0.0,WeatherDisplay:10.37,2013-02-21 06:10:00,
2013-02-21 01:15:00,23.5,5.8,30.12,West,272,0.0,6.0,46,0.00,CLR,CLR,0.00,0.0,WeatherDisplay:10.37,2013-02-21 06:15:00,
2013-02-21 01:20:00,23.5,5.8,30.12,West,261,2.0,7.0,46,0.00,CLR,CLR,0.00,0.0,WeatherDisplay:10.37,2013-02-21 06:20:00,
2013-02-21 01:30:00,23.5,5.8,30.12,WNW,294,3.0,6.0,46,0.00,CLR,CLR,0.00,0.0,WeatherDisplay:10.37,2013-02-21 06:30:00,
2013-02-21 01:40:00,23.4,5.6,30.12,West,264,2.0,8.0,46,0.00,CLR,CLR,0.00,0.0,WeatherDisplay:10.37,2013-02-21 06:40:00,
2013-02-21 01:50:00,23.4,5.6,30.12,WNW,290,1.0,4.0,46,0.00,CLR,CLR,0.00,0.0,WeatherDisplay:10.37,2013-02-21 06:50:00,
2013-02-21 01:55:00,23.2,5.4,30.12,NNW,341,2.0,6.0,46,0.00,CLR,CLR,0.00,0.0,WeatherDisplay:10.37,2013-02-21 06:55:00,
2013-02-21 02:00:00,23.2,5.4,30.12,NW,304,2.0,6.0,46,0.00,CLR,CLR,0.00,0.0,WeatherDisplay:10.37,2013-02-21 07:00:00,
2013-02-21 02:05:00,23.2,5.9,30.12,WNW,287,3.0,6.0,47,0.00,CLR,CLR,0.00,0.0,WeatherDisplay:10.37,2013-02-21 07:05:00,
2013-02-21 02:10:00,23.0,6.2,30.12,WNW,295,2.0,6.0,48,0.00,CLR,CLR,0.00,0.0,WeatherDisplay:10.37,2013-02-21 07:10:00,
2013-02-21 02:15:00,23.0,6.2,30.12,NW,326,2.0,4.0,48,0.00,CLR,CLR,0.00,0.0,WeatherDisplay:10.37,2013-02-21 07:15:00,
2013-02-21 02:20:00,23.0,6.2,30.12,East,84,1.0,3.0,48,0.00,CLR,CLR,0.00,0.0,WeatherDisplay:10.37,2013-02-21 07:20:00,
2013-02-21 02:25:00,23.0,6.2,30.12,WSW,247,2.0,3.0,48,0.00,CLR,CLR,0.00,0.0,WeatherDisplay:10.37,2013-02-21 07:25:00,
2013-02-21 02:30:00,22.9,6.1,30.12,West,273,2.0,6.0,48,0.00,CLR,CLR,0.00,0.0,WeatherDisplay:10.37,2013-02-21 07:30:00,
2013-02-21 02:35:00,23.0,6.7,30.12,WNW,294,2.0,6.0,49,0.00,CLR,CLR,0.00,0.0,WeatherDisplay:10.37,2013-02-21 07:35:00,
2013-02-21 02:40:00,22.9,6.1,30.12,NW,315,0.0,5.0,48,0.00,CLR,CLR,0.00,0.0,WeatherDisplay:10.37,2013-02-21 07:40:00,
2013-02-21 02:45:00,22.8,6.5,30.12,West,281,1.0,3.0,49,0.00,CLR,CLR,0.00,0.0,WeatherDisplay:10.37,2013-02-21 07:45:00,
2013-02-21 02:50:00,22.8,6.5,30.12,WSW,253,1.0,4.0,49,0.00,CLR,CLR,0.00,0.0,WeatherDisplay:10.37,2013-02-21 07:50:00,
2013-02-21 02:55:00,22.8,6.5,30.12,WNW,301,3.0,7.0,49,0.00,CLR,CLR,0.00,0.0,WeatherDisplay:10.37,2013-02-21 07:55:00,
2013-02-21 03:00:00,22.6,6.3,30.12,NW,323,2.0,4.0,49,0.00,CLR,CLR,0.00,0.0,WeatherDisplay:10.37,2013-02-21 08:00:00,
2013-02-21 03:05:00,22.6,6.3,30.09,WNW,289,2.0,5.0,49,0.00,CLR,CLR,0.00,0.0,WeatherDisplay:10.37,2013-02-21 08:05:00,
2013-02-21 03:10:00,22.6,6.8,30.09,West,280,2.0,4.0,50,0.00,CLR,CLR,0.00,0.0,WeatherDisplay:10.37,2013-02-21 08:10:00,
2013-02-21 03:20:00,22.6,6.8,30.12,West,278,1.0,5.0,50,0.00,CLR,CLR,0.00,0.0,WeatherDisplay:10.37,2013-02-21 08:20:00,
2013-02-21 03:25:00,22.6,6.8,30.12,West,266,2.0,5.0,50,0.00,CLR,CLR,0.00,0.0,WeatherDisplay:10.37,2013-02-21 08:25:00,
2013-02-21 03:30:00,22.6,6.8,30.12,West,266,1.0,6.0,50,0.00,CLR,CLR,0.00,0.0,WeatherDisplay:10.37,2013-02-21 08:30:00,
2013-02-21 03:35:00,22.6,6.8,30.12,West,264,2.0,6.0,50,0.00,CLR,CLR,0.00,0.0,WeatherDisplay:10.37,2013-02-21 08:35:00,
2013-02-21 03:40:00,22.8,6.9,30.12,West,263,2.0,7.0,50,0.00,CLR,CLR,0.00,0.0,WeatherDisplay:10.37,2013-02-21 08:40:00,
2013-02-21 03:50:00,22.8,6.9,30.12,WNW,297,1.0,3.0,50,0.00,CLR,CLR,0.00,0.0,WeatherDisplay:10.37,2013-02-21 08:50:00,
2013-02-21 03:55:00,22.8,6.9,30.12,West,276,1.0,7.0,50,0.00,CLR,CLR,0.00,0.0,WeatherDisplay:10.37,2013-02-21 08:55:00,
2013-02-21 04:00:00,22.8,6.9,30.12,WSW,256,2.0,6.0,50,0.00,CLR,CLR,0.00,0.0,WeatherDisplay:10.37,2013-02-21 09:00:00,
2013-02-21 04:05:00,22.8,6.9,30.12,WSW,245,2.0,8.0,50,0.00,CLR,CLR,0.00,0.0,WeatherDisplay:10.37,2013-02-21 09:05:00,
2013-02-21 04:10:00,22.8,6.9,30.12,WSW,246,2.0,6.0,50,0.00,CLR,CLR,0.00,0.0,WeatherDisplay:10.37,2013-02-21 09:10:00,
2013-02-21 04:20:00,22.6,6.8,30.12,SW,220,2.0,6.0,50,0.00,CLR,CLR,0.00,0.0,WeatherDisplay:10.37,2013-02-21 09:20:00,
2013-02-21 04:25:00,22.6,6.8,30.12,West,271,2.0,5.0,50,0.00,CLR,CLR,0.00,0.0,WeatherDisplay:10.37,2013-02-21 09:25:00,
2013-02-21 04:30:00,22.6,6.8,30.12,West,274,2.0,6.0,50,0.00,CLR,CLR,0.00,0.0,WeatherDisplay:10.37,2013-02-21 09:30:00,
2013-02-21 04:40:00,22.6,6.8,30.12,WSW,254,3.0,7.0,50,0.00,CLR,CLR,0.00,0.0,WeatherDisplay:10.37,2013-02-21 09:40:00,
2013-02-21 04:45:00,22.6,6.8,30.12,WNW,296,2.0,5.0,50,0.00,CLR,CLR,0.00,0.0,WeatherDisplay:10.37,2013-02-21 09:45:00,
2013-02-21 04:50:00,22.6,6.8,30.12,WNW,292,2.0,6.0,50,0.00,CLR,CLR,0.00,0.0,WeatherDisplay:10.37,2013-02-21 09:50:00,
2013-02-21 04:55:00,22.5,6.6,30.12,West,279,2.0,6.0,50,0.00,CLR,CLR,0.00,0.0,WeatherDisplay:10.37,2013-02-21 09:55:00,
2013-02-21 05:00:00,22.5,6.6,30.12,WSW,251,2.0,5.0,50,0.00,CLR,CLR,0.00,0.0,WeatherDisplay:10.37,2013-02-21 10:00:00,
2013-02-21 05:05:00,22.5,6.6,30.12,West,260,2.0,7.0,50,0.00,CLR,CLR,0.00,0.0,WeatherDisplay:10.37,2013-02-21 10:05:00,
2013-02-21 05:10:00,22.5,6.6,30.12,West,276,1.0,5.0,50,0.00,CLR,CLR,0.00,0.0,WeatherDisplay:10.37,2013-02-21 10:10:00,
2013-02-21 05:20:00,22.5,7.0,30.12,West,279,1.0,5.0,51,0.00,CLR,CLR,0.00,0.0,WeatherDisplay:10.37,2013-02-21 10:20:00,
2013-02-21 05:25:00,22.5,7.0,30.12,NW,323,2.0,5.0,51,0.00,CLR,CLR,0.00,0.0,WeatherDisplay:10.37,2013-02-21 10:25:00,
2013-02-21 05:30:00,22.5,7.0,30.12,WNW,293,2.0,6.0,51,0.00,CLR,CLR,0.00,0.0,WeatherDisplay:10.37,2013-02-21 10:30:00,
2013-02-21 05:35:00,22.4,7.0,30.12,WSW,249,2.0,7.0,51,0.00,CLR,CLR,0.00,0.0,WeatherDisplay:10.37,2013-02-21 10:35:00,
2013-02-21 05:40:00,22.5,7.0,30.12,West,268,3.0,7.0,51,0.00,CLR,CLR,0.00,0.0,WeatherDisplay:10.37,2013-02-21 10:40:00,
2013-02-21 05:45:00,22.3,6.9,30.12,West,270,1.0,6.0,51,0.00,CLR,CLR,0.00,0.0,WeatherDisplay:10.37,2013-02-21 10:45:00,
2013-02-21 05:50:00,22.3,6.9,30.09,WNW,290,1.0,5.0,51,0.00,CLR,CLR,0.00,0.0,WeatherDisplay:10.37,2013-02-21 10:50:00,
2013-02-21 05:55:00,22.3,6.9,30.09,West,276,2.0,5.0,51,0.00,CLR,CLR,0.00,0.0,WeatherDisplay:10.37,2013-02-21 10:55:00,
2013-02-21 06:00:00,22.3,6.9,30.09,West,273,3.0,6.0,51,0.00,CLR,CLR,0.00,0.0,WeatherDisplay:10.37,2013-02-21 11:00:00,
2013-02-21 06:05:00,22.3,6.9,30.12,West,273,1.0,6.0,51,0.00,CLR,CLR,0.00,0.0,WeatherDisplay:10.37,2013-02-21 11:05:00,
2013-02-21 06:10:00,22.3,6.9,30.12,WSW,238,2.0,6.0,51,0.00,CLR,CLR,0.00,0.0,WeatherDisplay:10.37,2013-02-21 11:10:00,
2013-02-21 06:20:00,22.3,6.9,30.12,NW,308,3.0,6.0,51,0.00,CLR,CLR,0.00,0.0,WeatherDisplay:10.37,2013-02-21 11:20:00,
2013-02-21 06:25:00,22.3,7.3,30.12,West,267,2.0,6.0,52,0.00,CLR,CLR,0.00,0.0,WeatherDisplay:10.37,2013-02-21 11:25:00,
2013-02-21 06:30:00,22.5,7.5,30.12,WSW,255,1.0,6.0,52,0.00,CLR,CLR,0.00,0.0,WeatherDisplay:10.37,2013-02-21 11:30:00,
2013-02-21 06:35:00,22.6,7.6,30.12,West,261,3.0,7.0,52,0.00,CLR,CLR,0.00,0.0,WeatherDisplay:10.37,2013-02-21 11:35:00,
2013-02-21 06:40:00,22.6,7.6,30.12,West,272,3.0,8.0,52,0.00,CLR,CLR,0.00,0.0,WeatherDisplay:10.37,2013-02-21 11:40:00,
2013-02-21 06:45:00,22.6,7.6,30.12,West,259,3.0,6.0,52,0.00,CLR,CLR,0.00,0.0,WeatherDisplay:10.37,2013-02-21 11:45:00,
2013-02-21 06:50:00,22.6,7.2,30.12,WNW,299,3.0,10.0,51,0.00,CLR,CLR,0.00,0.0,WeatherDisplay:10.37,2013-02-21 11:50:00,
2013-02-21 07:00:00,22.6,7.2,30.12,North,0,3.0,6.0,51,0.00,CLR,CLR,0.00,0.0,WeatherDisplay:10.37,2013-02-21 12:00:00,
2013-02-21 07:05:00,22.6,7.2,30.12,NNW,327,3.0,6.0,51,0.00,CLR,CLR,0.00,0.0,WeatherDisplay:10.37,2013-02-21 12:05:00,
2013-02-21 07:10:00,22.7,7.2,30.12,West,273,5.0,9.0,51,0.00,CLR,CLR,0.00,0.0,WeatherDisplay:10.37,2013-02-21 12:10:00,
2013-02-21 07:20:00,23.0,7.1,30.12,WNW,288,5.0,7.0,50,0.00,CLR,CLR,0.00,0.0,WeatherDisplay:10.37,2013-02-21 12:20:00,
2013-02-21 07:30:00,23.5,7.2,30.12,WNW,293,3.0,8.0,49,0.00,CLR,CLR,0.00,0.0,WeatherDisplay:10.37,2013-02-21 12:30:00,
2013-02-21 07:35:00,23.7,6.9,30.12,NW,306,5.0,10.0,48,0.00,CLR,CLR,0.00,0.0,WeatherDisplay:10.37,2013-02-21 12:35:00,
2013-02-21 07:40:00,24.1,7.2,30.12,West,279,5.0,10.0,48,0.00,CLR,CLR,0.00,0.0,WeatherDisplay:10.37,2013-02-21 12:40:00,
2013-02-21 07:50:00,24.7,7.8,30.15,West,281,6.0,13.0,48,0.00,CLR,CLR,0.00,0.0,WeatherDisplay:10.37,2013-02-21 12:50:00,
2013-02-21 07:55:00,25.2,7.7,30.15,WNW,292,3.0,11.0,47,0.00,CLR,CLR,0.00,0.0,WeatherDisplay:10.37,2013-02-21 12:55:00,
2013-02-21 08:00:00,25.5,8.5,30.15,NW,315,3.0,11.0,48,0.00,CLR,CLR,0.00,0.4,WeatherDisplay:10.37,2013-02-21 13:00:00,
2013-02-21 08:05:00,25.9,8.4,30.15,NW,321,5.0,10.0,47,0.00,CLR,CLR,0.00,0.9,WeatherDisplay:10.37,2013-02-21 13:05:00,
2013-02-21 08:10:00,26.4,8.9,30.15,NW,322,5.0,11.0,47,0.00,CLR,CLR,0.00,1.2,WeatherDisplay:10.37,2013-02-21 13:10:00,
2013-02-21 08:15:00,26.8,8.7,30.15,NW,314,3.0,7.0,46,0.00,CLR,CLR,0.00,1.5,WeatherDisplay:10.37,2013-02-21 13:15:00,
2013-02-21 08:20:00,27.0,8.4,30.18,West,278,3.0,8.0,45,0.00,CLR,CLR,0.00,1.9,WeatherDisplay:10.37,2013-02-21 13:20:00,
2013-02-21 08:25:00,26.6,8.1,30.18,West,271,6.0,12.0,45,0.00,CLR,CLR,0.00,2.5,WeatherDisplay:10.37,2013-02-21 13:25:00,
2013-02-21 08:30:00,26.6,8.1,30.18,West,271,5.0,9.0,45,0.00,CLR,CLR,0.00,2.9,WeatherDisplay:10.37,2013-02-21 13:30:00,
2013-02-21 08:40:00,26.8,8.2,30.18,West,274,1.0,11.0,45,0.00,CLR,CLR,0.00,3.7,WeatherDisplay:10.37,2013-02-21 13:40:00,
2013-02-21 08:45:00,26.8,8.2,30.18,West,261,5.0,11.0,45,0.00,CLR,CLR,0.00,4.1,WeatherDisplay:10.37,2013-02-21 13:45:00,
2013-02-21 08:50:00,27.0,8.4,30.21,West,261,2.0,8.0,45,0.00,CLR,CLR,0.00,4.4,WeatherDisplay:10.37,2013-02-21 13:50:00,
2013-02-21 09:00:00,27.4,8.8,30.21,WNW,282,2.0,8.0,45,0.00,CLR,CLR,0.00,4.7,WeatherDisplay:10.37,2013-02-21 14:00:00,
2013-02-21 09:05:00,27.7,9.1,30.18,WSW,253,3.0,8.0,45,0.00,CLR,CLR,0.00,4.9,WeatherDisplay:10.37,2013-02-21 14:05:00,
2013-02-21 09:10:00,27.5,8.4,30.18,West,276,6.0,10.0,44,0.00,CLR,CLR,0.00,5.5,WeatherDisplay:10.37,2013-02-21 14:10:00,
2013-02-21 09:20:00,27.9,8.8,30.18,WNW,296,3.0,10.0,44,0.00,CLR,CLR,0.00,5.5,WeatherDisplay:10.37,2013-02-21 14:20:00,
2013-02-21 09:25:00,28.0,8.9,30.18,NW,320,3.0,8.0,44,0.00,CLR,CLR,0.00,5.9,WeatherDisplay:10.37,2013-02-21 14:25:00,
2013-02-21 09:30:00,28.2,9.1,30.18,WNW,286,3.0,11.0,44,0.00,CLR,CLR,0.00,6.0,WeatherDisplay:10.37,2013-02-21 14:30:00,
2013-02-21 09:35:00,28.9,9.7,30.18,WNW,283,5.0,11.0,44,0.00,CLR,CLR,0.00,5.1,WeatherDisplay:10.37,2013-02-21 14:35:00,
2013-02-21 09:40:00,29.7,9.9,30.18,West,274,5.0,13.0,43,0.00,CLR,CLR,0.00,3.8,WeatherDisplay:10.37,2013-02-21 14:40:00,
2013-02-21 09:45:00,30.2,10.3,30.18,NW,305,5.0,12.0,43,0.00,CLR,CLR,0.00,100.0,WeatherDisplay:10.37,2013-02-21 14:45:00,
2013-02-21 09:50:00,30.6,10.2,30.15,WNW,302,6.0,11.0,42,0.00,CLR,CLR,0.00,2.8,WeatherDisplay:10.37,2013-02-21 14:50:00,
2013-02-21 09:55:00,30.6,10.2,30.15,WNW,291,3.0,10.0,42,0.00,CLR,CLR,0.00,2.9,WeatherDisplay:10.37,2013-02-21 14:55:00,
2013-02-21 10:00:00,30.4,10.1,30.15,West,277,2.0,7.0,42,0.00,CLR,CLR,0.00,3.4,WeatherDisplay:10.37,2013-02-21 15:00:00,
2013-02-21 10:05:00,30.6,10.2,30.18,NNW,329,5.0,9.0,42,0.00,CLR,CLR,0.00,3.2,WeatherDisplay:10.37,2013-02-21 15:05:00,
2013-02-21 10:10:00,30.4,10.0,30.18,NNW,331,5.0,7.0,42,0.00,CLR,CLR,0.00,4.1,WeatherDisplay:10.37,2013-02-21 15:10:00,
2013-02-21 10:15:00,30.5,10.1,30.18,NNW,340,6.0,9.0,42,0.00,CLR,CLR,0.00,3.4,WeatherDisplay:10.37,2013-02-21 15:15:00,
2013-02-21 10:20:00,31.5,11.0,30.15,North,8,3.0,8.0,42,0.00,CLR,CLR,0.00,1.3,WeatherDisplay:10.37,2013-02-21 15:20:00,
2013-02-21 10:25:00,31.5,11.0,30.15,NNW,337,8.0,13.0,42,0.00,CLR,CLR,0.00,100.0,WeatherDisplay:10.37,2013-02-21 15:25:00,
2013-02-21 10:35:00,32.8,12.2,30.18,NNW,328,5.0,9.0,42,0.00,CLR,CLR,0.00,0.0,WeatherDisplay:10.37,2013-02-21 15:35:00,
2013-02-21 10:40:00,33.3,12.6,30.18,NW,323,5.0,10.0,42,0.00,CLR,CLR,0.00,300.0,WeatherDisplay:10.37,2013-02-21 15:40:00,
2013-02-21 10:50:00,34.3,13.0,30.18,NNW,341,5.0,11.0,41,0.00,CLR,CLR,0.00,0.0,WeatherDisplay:10.37,2013-02-21 15:50:00,
2013-02-21 10:55:00,34.9,13.5,30.18,WNW,302,3.0,10.0,41,0.00,CLR,CLR,0.00,400.0,WeatherDisplay:10.37,2013-02-21 15:55:00,
2013-02-21 11:00:00,34.9,13.5,30.18,WNW,291,8.0,13.0,41,0.00,CLR,CLR,0.00,0.0,WeatherDisplay:10.37,2013-02-21 16:00:00,
2013-02-21 11:05:00,34.6,12.7,30.18,NW,311,6.0,13.0,40,0.00,CLR,CLR,0.00,0.0,WeatherDisplay:10.37,2013-02-21 16:05:00,
2013-02-21 11:10:00,35.1,13.7,30.18,NNW,327,5.0,9.0,41,0.00,CLR,CLR,0.00,0.0,WeatherDisplay:10.37,2013-02-21 16:10:00,
2013-02-21 11:20:00,35.2,13.3,30.15,North,3,5.0,9.0,40,0.00,CLR,CLR,0.00,0.0,WeatherDisplay:10.37,2013-02-21 16:20:00,
2013-02-21 11:25:00,35.1,13.1,30.15,NNW,339,3.0,10.0,40,0.00,CLR,CLR,0.00,0.0,WeatherDisplay:10.37,2013-02-21 16:25:00,
2013-02-21 11:35:00,36.0,14.0,30.15,NNW,335,6.0,12.0,40,0.00,CLR,CLR,0.00,0.0,WeatherDisplay:10.37,2013-02-21 16:35:00,
2013-02-21 11:40:00,36.1,14.1,30.15,NNW,336,5.0,12.0,40,0.00,CLR,CLR,0.00,0.0,WeatherDisplay:10.37,2013-02-21 16:40:00,
2013-02-21 11:45:00,35.3,13.4,30.15,NNW,327,2.0,8.0,40,0.00,CLR,CLR,0.00,0.0,WeatherDisplay:10.37,2013-02-21 16:45:00,
2013-02-21 11:50:00,35.1,13.1,30.18,NW,308,2.0,9.0,40,0.00,CLR,CLR,0.00,200.0,WeatherDisplay:10.37,2013-02-21 16:50:00,
2013-02-21 11:55:00,34.7,12.8,30.18,West,271,3.0,9.0,40,0.00,CLR,CLR,0.00,0.0,WeatherDisplay:10.37,2013-02-21 16:55:00,
2013-02-21 12:00:00,34.6,12.7,30.18,WNW,282,5.0,9.0,40,0.00,CLR,CLR,0.00,100.0,WeatherDisplay:10.37,2013-02-21 17:00:00,
2013-02-21 12:05:00,34.5,12.6,30.18,WNW,292,3.0,8.0,40,0.00,CLR,CLR,0.00,0.0,WeatherDisplay:10.37,2013-02-21 17:05:00,
2013-02-21 12:10:00,35.2,13.3,30.18,WNW,283,3.0,13.0,40,0.00,CLR,CLR,0.00,500.0,WeatherDisplay:10.37,2013-02-21 17:10:00,
2013-02-21 12:15:00,36.0,13.9,30.18,NW,324,3.0,8.0,40,0.00,CLR,CLR,0.00,0.0,WeatherDisplay:10.37,2013-02-21 17:15:00,
2013-02-21 12:20:00,35.4,13.4,30.18,North,5,3.0,7.0,40,0.00,CLR,CLR,0.00,0.0,WeatherDisplay:10.37,2013-02-21 17:20:00,
2013-02-21 12:25:00,35.8,13.8,30.18,North,349,5.0,9.0,40,0.00,CLR,CLR,0.00,0.0,WeatherDisplay:10.37,2013-02-21 17:25:00,
2013-02-21 12:30:00,35.4,13.5,30.18,West,273,6.0,15.0,40,0.00,CLR,CLR,0.00,0.0,WeatherDisplay:10.37,2013-02-21 17:30:00,
2013-02-21 12:40:00,35.8,13.8,30.18,WNW,287,5.0,10.0,40,0.00,CLR,CLR,0.00,0.0,WeatherDisplay:10.37,2013-02-21 17:40:00,
2013-02-21 12:45:00,35.9,13.9,30.18,North,356,5.0,8.0,40,0.00,CLR,CLR,0.00,0.0,WeatherDisplay:10.37,2013-02-21 17:45:00,
2013-02-21 12:50:00,35.4,13.5,30.18,NNW,327,5.0,8.0,40,0.00,CLR,CLR,0.00,0.0,WeatherDisplay:10.37,2013-02-21 17:50:00,
2013-02-21 12:55:00,36.1,14.0,30.18,West,259,2.0,7.0,40,0.00,CLR,CLR,0.00,0.0,WeatherDisplay:10.37,2013-02-21 17:55:00,
2013-02-21 13:00:00,35.8,13.8,30.18,WNW,294,5.0,8.0,40,0.00,CLR,CLR,0.00,0.0,WeatherDisplay:10.37,2013-02-21 18:00:00,
2013-02-21 13:05:00,35.8,13.8,30.18,NNE,12,5.0,14.0,40,0.00,CLR,CLR,0.00,400.0,WeatherDisplay:10.37,2013-02-21 18:05:00,
2013-02-21 13:10:00,36.0,14.0,30.18,NNW,334,5.0,9.0,40,0.00,CLR,CLR,0.00,0.0,WeatherDisplay:10.37,2013-02-21 18:10:00,
2013-02-21 13:20:00,36.3,13.7,30.18,WNW,301,5.0,8.0,39,0.00,CLR,CLR,0.00,0.0,WeatherDisplay:10.37,2013-02-21 18:20:00,
2013-02-21 13:30:00,37.4,14.7,30.18,West,268,2.0,9.0,39,0.00,CLR,CLR,0.00,300.0,WeatherDisplay:10.37,2013-02-21 18:30:00,
2013-02-21 13:40:00,38.1,15.3,30.18,SSW,213,5.0,9.0,39,0.00,CLR,CLR,0.00,0.0,WeatherDisplay:10.37,2013-02-21 18:40:00,
2013-02-21 13:45:00,37.9,15.1,30.18,SW,220,6.0,13.0,39,0.00,CLR,CLR,0.00,0.0,WeatherDisplay:10.37,2013-02-21 18:45:00,
2013-02-21 13:50:00,38.5,15.7,30.15,West,280,5.0,8.0,39,0.00,CLR,CLR,0.00,0.0,WeatherDisplay:10.37,2013-02-21 18:50:00,
2013-02-21 13:55:00,38.7,15.8,30.15,WNW,295,3.0,10.0,39,0.00,CLR,CLR,0.00,0.0,WeatherDisplay:10.37,2013-02-21 18:55:00,
2013-02-21 14:00:00,38.2,15.4,30.15,NW,315,5.0,10.0,39,0.00,CLR,CLR,0.00,0.0,WeatherDisplay:10.37,2013-02-21 19:00:00,
2013-02-21 14:05:00,38.1,15.3,30.15,WNW,294,5.0,12.0,39,0.00,CLR,CLR,0.00,0.0,WeatherDisplay:10.37,2013-02-21 19:05:00,
2013-02-21 14:10:00,38.8,16.0,30.15,WSW,257,6.0,13.0,39,0.00,CLR,CLR,0.00,0.0,WeatherDisplay:10.37,2013-02-21 19:10:00,
2013-02-21 14:20:00,39.2,15.7,30.12,North,355,6.0,9.0,38,0.00,CLR,CLR,0.00,0.0,WeatherDisplay:10.37,2013-02-21 19:20:00,
2013-02-21 14:30:00,38.8,16.0,30.12,NW,321,5.0,14.0,39,0.00,CLR,CLR,0.00,0.0,WeatherDisplay:10.37,2013-02-21 19:30:00,
2013-02-21 14:40:00,38.8,15.4,30.15,West,275,3.0,8.0,38,0.00,CLR,CLR,0.00,0.0,WeatherDisplay:10.37,2013-02-21 19:40:00,
2013-02-21 14:45:00,38.7,15.2,30.15,NW,315,3.0,10.0,38,0.00,CLR,CLR,0.00,0.0,WeatherDisplay:10.37,2013-02-21 19:45:00,
2013-02-21 14:50:00,39.2,15.6,30.15,West,281,5.0,7.0,38,0.00,CLR,CLR,0.00,0.0,WeatherDisplay:10.37,2013-02-21 19:50:00,
2013-02-21 15:00:00,38.9,15.4,30.15,NW,317,3.0,9.0,38,0.00,CLR,CLR,0.00,0.0,WeatherDisplay:10.37,2013-02-21 20:00:00,
2013-02-21 15:05:00,39.2,15.7,30.15,NW,309,3.0,6.0,38,0.00,CLR,CLR,0.00,0.0,WeatherDisplay:10.37,2013-02-21 20:05:00,
2013-02-21 15:10:00,39.2,15.7,30.15,West,280,3.0,13.0,38,0.00,CLR,CLR,0.00,100.0,WeatherDisplay:10.37,2013-02-21 20:10:00,
2013-02-21 15:15:00,38.9,15.5,30.15,West,280,5.0,13.0,38,0.00,CLR,CLR,0.00,0.0,WeatherDisplay:10.37,2013-02-21 20:15:00,
2013-02-21 15:20:00,38.5,14.4,30.15,WSW,252,3.0,12.0,37,0.00,CLR,CLR,0.00,0.0,WeatherDisplay:10.37,2013-02-21 20:20:00,
2013-02-21 15:25:00,38.8,15.4,30.15,SW,230,2.0,7.0,38,0.00,CLR,CLR,0.00,0.0,WeatherDisplay:10.37,2013-02-21 20:25:00,
2013-02-21 15:30:00,38.7,15.2,30.15,West,270,3.0,9.0,38,0.00,CLR,CLR,0.00,0.0,WeatherDisplay:10.37,2013-02-21 20:30:00,
2013-02-21 15:40:00,38.3,14.3,30.12,WNW,291,2.0,10.0,37,0.00,CLR,CLR,0.00,0.0,WeatherDisplay:10.37,2013-02-21 20:40:00,
2013-02-21 15:45:00,38.1,14.1,30.12,North,355,3.0,13.0,37,0.00,CLR,CLR,0.00,0.0,WeatherDisplay:10.37,2013-02-21 20:45:00,
2013-02-21 15:50:00,37.7,13.8,30.15,NNE,26,3.0,9.0,37,0.00,CLR,CLR,0.00,0.0,WeatherDisplay:10.37,2013-02-21 20:50:00,
2013-02-21 15:55:00,37.6,13.6,30.15,North,6,2.0,11.0,37,0.00,CLR,CLR,0.00,0.0,WeatherDisplay:10.37,2013-02-21 20:55:00,
2013-02-21 16:00:00,37.5,13.0,30.15,North,354,6.0,13.0,36,0.00,CLR,CLR,0.00,0.0,WeatherDisplay:10.37,2013-02-21 21:00:00,
2013-02-21 16:05:00,37.2,13.3,30.15,NNW,330,5.0,10.0,37,0.00,CLR,CLR,0.00,0.0,WeatherDisplay:10.37,2013-02-21 21:05:00,
2013-02-21 16:10:00,36.9,13.0,30.15,NNW,339,5.0,14.0,37,0.00,CLR,CLR,0.00,0.0,WeatherDisplay:10.37,2013-02-21 21:10:00,
2013-02-21 16:15:00,36.9,13.0,30.15,East,80,5.0,9.0,37,0.00,CLR,CLR,0.00,0.0,WeatherDisplay:10.37,2013-02-21 21:15:00,
2013-02-21 16:20:00,36.7,12.8,30.18,NW,311,5.0,9.0,37,0.00,CLR,CLR,0.00,0.0,WeatherDisplay:10.37,2013-02-21 21:20:00,
2013-02-21 16:30:00,36.3,12.5,30.18,NE,44,5.0,8.0,37,0.00,CLR,CLR,0.00,0.0,WeatherDisplay:10.37,2013-02-21 21:30:00,
2013-02-21 16:40:00,36.1,12.9,30.18,WNW,288,5.0,7.0,38,0.00,CLR,CLR,0.00,0.0,WeatherDisplay:10.37,2013-02-21 21:40:00,
2013-02-21 16:50:00,35.8,12.0,30.15,NW,321,5.0,8.0,37,0.00,CLR,CLR,0.00,0.0,WeatherDisplay:10.37,2013-02-21 21:50:00,
2013-02-21 17:00:00,35.6,12.5,30.15,North,351,2.0,9.0,38,0.00,CLR,CLR,0.00,0.0,WeatherDisplay:10.37,2013-02-21 22:00:00,
2013-02-21 17:05:00,35.2,12.1,30.18,North,4,2.0,13.0,38,0.00,CLR,CLR,0.00,0.0,WeatherDisplay:10.37,2013-02-21 22:05:00,
2013-02-21 17:10:00,35.1,12.0,30.18,NNW,342,3.0,12.0,38,0.00,CLR,CLR,0.00,0.0,WeatherDisplay:10.37,2013-02-21 22:10:00,
2013-02-21 17:20:00,34.7,12.2,30.18,WNW,293,2.0,6.0,39,0.00,CLR,CLR,0.00,0.0,WeatherDisplay:10.37,2013-02-21 22:20:00,
2013-02-21 17:30:00,34.5,12.1,30.18,NW,308,3.0,6.0,39,0.00,CLR,CLR,0.00,0.0,WeatherDisplay:10.37,2013-02-21 22:30:00,
2013-02-21 17:35:00,34.3,12.5,30.18,North,358,3.0,6.0,40,0.00,CLR,CLR,0.00,0.0,WeatherDisplay:10.37,2013-02-21 22:35:00,
2013-02-21 17:40:00,34.5,12.6,30.18,NW,312,5.0,13.0,40,0.00,CLR,CLR,0.00,0.0,WeatherDisplay:10.37,2013-02-21 22:40:00,
2013-02-21 17:45:00,34.5,12.6,30.18,WNW,288,2.0,6.0,40,0.00,CLR,CLR,0.00,0.0,WeatherDisplay:10.37,2013-02-21 22:45:00,
2013-02-21 17:50:00,34.3,12.5,30.21,West,273,3.0,12.0,40,0.00,CLR,CLR,0.00,0.0,WeatherDisplay:10.37,2013-02-21 22:50:00,
2013-02-21 18:00:00,34.0,12.2,30.21,WNW,303,2.0,5.0,40,0.00,CLR,CLR,0.00,0.0,WeatherDisplay:10.37,2013-02-21 23:00:00,
2013-02-21 18:05:00,33.8,12.0,30.21,WNW,302,1.0,6.0,40,0.00,CLR,CLR,0.00,0.0,WeatherDisplay:10.37,2013-02-21 23:05:00,
2013-02-21 18:10:00,33.8,12.0,30.21,WNW,297,2.0,7.0,40,0.00,CLR,CLR,0.00,0.0,WeatherDisplay:10.37,2013-02-21 23:10:00,
2013-02-21 18:15:00,33.6,11.8,30.21,West,278,2.0,6.0,40,0.00,CLR,CLR,0.00,0.0,WeatherDisplay:10.37,2013-02-21 23:15:00,
2013-02-21 18:20:00,33.6,11.8,30.24,WNW,282,1.0,6.0,40,0.00,CLR,CLR,0.00,0.0,WeatherDisplay:10.37,2013-02-21 23:20:00,
2013-02-21 18:30:00,33.6,11.8,30.24,NNW,348,1.0,4.0,40,0.00,CLR,CLR,0.00,0.0,WeatherDisplay:10.37,2013-02-21 23:30:00,
2013-02-21 18:40:00,33.3,12.1,30.24,NW,316,1.0,3.0,41,0.00,CLR,CLR,0.00,0.0,WeatherDisplay:10.37,2013-02-21 23:40:00,
2013-02-21 18:50:00,33.1,11.9,30.21,West,274,2.0,6.0,41,0.00,CLR,CLR,0.00,0.0,WeatherDisplay:10.37,2013-02-21 23:50:00,
2013-02-21 18:55:00,32.9,11.7,30.21,NNW,338,2.0,7.0,41,0.00,CLR,CLR,0.00,0.0,WeatherDisplay:10.37,2013-02-21 23:55:00,
2013-02-21 19:00:00,32.7,11.6,30.21,WNW,293,2.0,6.0,41,0.00,CLR,CLR,0.00,0.0,WeatherDisplay:10.37,2013-02-22 00:00:00,
2013-02-21 19:05:00,32.7,11.6,30.24,West,266,2.0,7.0,41,0.00,CLR,CLR,0.00,0.0,WeatherDisplay:10.37,2013-02-22 00:05:00,
2013-02-21 19:10:00,32.5,11.4,30.24,SW,236,2.0,5.0,41,0.00,CLR,CLR,0.00,0.0,WeatherDisplay:10.37,2013-02-22 00:10:00,
2013-02-21 19:20:00,32.4,11.2,30.24,NNW,336,2.0,6.0,41,0.00,CLR,CLR,0.00,0.0,WeatherDisplay:10.37,2013-02-22 00:20:00,
2013-02-21 19:25:00,32.4,11.2,30.24,NW,308,2.0,4.0,41,0.00,CLR,CLR,0.00,0.0,WeatherDisplay:10.37,2013-02-22 00:25:00,
2013-02-21 19:35:00,31.9,10.8,30.26,West,278,0.0,5.0,41,0.00,CLR,CLR,0.00,0.0,WeatherDisplay:10.37,2013-02-22 00:35:00,
2013-02-21 19:40:00,31.8,10.8,30.26,North,350,3.0,4.0,41,0.00,CLR,CLR,0.00,0.0,WeatherDisplay:10.37,2013-02-22 00:40:00,
2013-02-21 19:45:00,31.8,11.3,30.26,West,277,0.0,2.0,42,0.00,CLR,CLR,0.00,0.0,WeatherDisplay:10.37,2013-02-22 00:45:00,
2013-02-21 19:50:00,31.8,11.3,30.26,WNW,286,1.0,5.0,42,0.00,CLR,CLR,0.00,0.0,WeatherDisplay:10.37,2013-02-22 00:50:00,
2013-02-21 19:55:00,31.8,11.8,30.26,WNW,287,1.0,3.0,43,0.00,CLR,CLR,0.00,0.0,WeatherDisplay:10.37,2013-02-22 00:55:00,
2013-02-21 20:00:00,31.6,11.7,30.26,WNW,292,3.0,6.0,43,0.00,CLR,CLR,0.00,0.0,WeatherDisplay:10.37,2013-02-22 01:00:00,
2013-02-21 20:05:00,31.5,11.5,30.24,WNW,296,0.0,2.0,43,0.00,CLR,CLR,0.00,0.0,WeatherDisplay:10.37,2013-02-22 01:05:00,
2013-02-21 20:15:00,31.5,11.5,30.24,NW,314,1.0,4.0,43,0.00,CLR,CLR,0.00,0.0,WeatherDisplay:10.37,2013-02-22 01:15:00,
2013-02-21 20:20:00,31.3,11.3,30.26,West,271,1.0,5.0,43,0.00,CLR,CLR,0.00,0.0,WeatherDisplay:10.37,2013-02-22 01:20:00,
2013-02-21 20:25:00,31.1,11.2,30.26,WNW,299,1.0,3.0,43,0.00,CLR,CLR,0.00,0.0,WeatherDisplay:10.37,2013-02-22 01:25:00,
2013-02-21 20:30:00,31.1,11.2,30.26,West,281,2.0,3.0,43,0.00,CLR,CLR,0.00,0.0,WeatherDisplay:10.37,2013-02-22 01:30:00,
2013-02-21 20:35:00,30.9,11.0,30.26,NW,316,0.0,3.0,43,0.00,CLR,CLR,0.00,0.0,WeatherDisplay:10.37,2013-02-22 01:35:00,
2013-02-21 20:45:00,30.6,10.7,30.26,WNW,297,1.0,6.0,43,0.00,CLR,CLR,0.00,0.0,WeatherDisplay:10.37,2013-02-22 01:45:00,
2013-02-21 20:50:00,30.4,10.5,30.30,NNW,333,2.0,5.0,43,0.00,CLR,CLR,0.00,0.0,WeatherDisplay:10.37,2013-02-22 01:50:00,
2013-02-21 21:00:00,30.2,10.9,30.30,WNW,290,1.0,5.0,44,0.00,CLR,CLR,0.00,0.0,WeatherDisplay:10.37,2013-02-22 02:00:00,
2013-02-21 21:05:00,29.9,10.6,30.30,West,272,1.0,4.0,44,0.00,CLR,CLR,0.00,0.0,WeatherDisplay:10.37,2013-02-22 02:05:00,
2013-02-21 21:10:00,29.8,10.5,30.30,West,269,2.0,5.0,44,0.00,CLR,CLR,0.00,0.0,WeatherDisplay:10.37,2013-02-22 02:10:00,
2013-02-21 21:20:00,29.7,10.4,30.30,NW,310,2.0,3.0,44,0.00,CLR,CLR,0.00,0.0,WeatherDisplay:10.37,2013-02-22 02:20:00,
2013-02-21 21:25:00,29.7,10.4,30.30,WNW,283,2.0,5.0,44,0.00,CLR,CLR,0.00,0.0,WeatherDisplay:10.37,2013-02-22 02:25:00,
2013-02-21 21:30:00,29.7,10.4,30.30,NW,309,2.0,5.0,44,0.00,CLR,CLR,0.00,0.0,WeatherDisplay:10.37,2013-02-22 02:30:00,
2013-02-21 21:35:00,29.5,10.2,30.30,NNW,347,2.0,5.0,44,0.00,CLR,CLR,0.00,0.0,WeatherDisplay:10.37,2013-02-22 02:35:00,
2013-02-21 21:40:00,29.5,10.2,30.30,WNW,289,0.0,3.0,44,0.00,CLR,CLR,0.00,0.0,WeatherDisplay:10.37,2013-02-22 02:40:00,
2013-02-21 21:50:00,29.3,10.6,30.30,West,264,1.0,5.0,45,0.00,CLR,CLR,0.00,0.0,WeatherDisplay:10.37,2013-02-22 02:50:00,
2013-02-21 22:00:00,29.3,10.6,30.30,NE,45,2.0,4.0,45,0.00,CLR,CLR,0.00,0.0,WeatherDisplay:10.37,2013-02-22 03:00:00,
2013-02-21 22:05:00,29.3,10.6,30.30,NNE,22,1.0,5.0,45,0.00,CLR,CLR,0.00,0.0,WeatherDisplay:10.37,2013-02-22 03:05:00,
2013-02-21 22:10:00,29.1,10.4,30.30,North,10,1.0,4.0,45,0.00,CLR,CLR,0.00,0.0,WeatherDisplay:10.37,2013-02-22 03:10:00,
2013-02-21 22:15:00,29.1,10.4,30.30,North,353,0.0,3.0,45,0.00,CLR,CLR,0.00,0.0,WeatherDisplay:10.37,2013-02-22 03:15:00,
2013-02-21 22:20:00,29.1,10.4,30.30,North,357,2.0,4.0,45,0.00,CLR,CLR,0.00,0.0,WeatherDisplay:10.37,2013-02-22 03:20:00,
2013-02-21 22:25:00,28.9,10.2,30.30,North,8,3.0,5.0,45,0.00,CLR,CLR,0.00,0.0,WeatherDisplay:10.37,2013-02-22 03:25:00,
2013-02-21 22:30:00,28.9,10.2,30.30,North,354,2.0,5.0,45,0.00,CLR,CLR,0.00,0.0,WeatherDisplay:10.37,2013-02-22 03:30:00,
2013-02-21 22:40:00,28.8,10.1,30.30,North,353,1.0,2.0,45,0.00,CLR,CLR,0.00,0.0,WeatherDisplay:10.37,2013-02-22 03:40:00,
2013-02-21 22:50:00,28.8,10.6,30.30,WNW,282,1.0,3.0,46,0.00,CLR,CLR,0.00,0.0,WeatherDisplay:10.37,2013-02-22 03:50:00,
2013-02-21 23:00:00,28.6,10.4,30.30,WNW,283,0.0,5.0,46,0.00,CLR,CLR,0.00,0.0,WeatherDisplay:10.37,2013-02-22 04:00:00,
2013-02-21 23:05:00,28.6,10.4,30.30,West,264,1.0,3.0,46,0.00,CLR,CLR,0.00,0.0,WeatherDisplay:10.37,2013-02-22 04:05:00,
2013-02-21 23:10:00,28.6,10.4,30.30,West,267,0.0,3.0,46,0.00,CLR,CLR,0.00,0.0,WeatherDisplay:10.37,2013-02-22 04:10:00,
2013-02-21 23:20:00,28.4,10.7,30.30,WNW,290,1.0,2.0,47,0.00,CLR,CLR,0.00,0.0,WeatherDisplay:10.37,2013-02-22 04:20:00,
2013-02-21 23:25:00,28.2,10.5,30.30,West,281,2.0,6.0,47,0.00,CLR,CLR,0.00,0.0,WeatherDisplay:10.37,2013-02-22 04:25:00,
2013-02-21 23:30:00,28.2,10.5,30.30,West,273,1.0,3.0,47,0.00,CLR,CLR,0.00,0.0,WeatherDisplay:10.37,2013-02-22 04:30:00,
2013-02-21 23:40:00,28.2,10.5,30.30,East,92,1.0,6.0,47,0.00,CLR,CLR,0.00,0.0,WeatherDisplay:10.37,2013-02-22 04:40:00,
2013-02-21 23:50:00,28.2,11.0,30.30,East,84,1.0,3.0,48,0.00,CLR,CLR,0.00,0.0,WeatherDisplay:10.37,2013-02-22 04:50:00,